Regional Weather Roundup
Issued by NWS Wilmington, NC

Home | Current Version | Previous Version | Text Only | Print | Product List | Glossary On
Versions: 1 2 3 4 5 6 7 8 9 10 11 12 13 14 15 16 17 18 19 20 21 22 23 24 25 26 27 28 29 30 31 32 33 34 35 36 37 38 39 40 41 42 43 44 45 46 47 48 49 50
283
ASUS42 KILM 271913
RWRILM
RWRILM
REGIONAL HOURLY WEATHER ROUNDUP
NATIONAL WEATHER SERVICE WILMINGTON NC
300 PM EDT WED JUL 27 2016

NOTE: "FAIR" INDICATES FEW OR NO CLOUDS BELOW 12,000 FEET WITH NO
SIGNIFICANT WEATHER AND/OR OBSTRUCTIONS TO VISIBILITY.

...............WFO WILMINGTON COUNTY WARNING AREA...............

......COASTAL NC AND SC COUNTIES......

CITY           SKY/WX    TMP DP  RH WIND       PRES   REMARKS
WILMINGTON     SUNNY     97  72  44 W10       29.95F HX 105
N MYRTLE BEACH SUNNY     90  78  68 S15       29.98F HX 104
MYRTLE BEACH   MOSUNNY   91  73  55 S17       30.00F HX 100

......INLAND NC AND SC COUNTIES.......

CITY           SKY/WX    TMP DP  RH WIND       PRES   REMARKS
LUMBERTON      SUNNY     96  71  44 SW10      29.95F HX 103
ELIZABETHTOWN  SUNNY     98  72  43 SW9       29.96F HX 106
WHITEVILLE     SUNNY     96  73  48 SW7       29.96F HX 105
FLORENCE       MOSUNNY   95  73  48 SW10      29.97F HX 104
DARLINGTON     SUNNY     96  75  50 S8        29.97F HX 108
KINGSTREE      FAIR      97  70  41 S9        29.98F HX 103
HARTSVILLE     FAIR      95  72  46 S10       29.96F HX 103
BENNETTSVILLE  FAIR      97  73  46 S9        29.95F HX 107
CONWAY         FAIR      95  72  46 SW7       29.97F HX 103
GEORGETOWN     FAIR      91  73  55 W8        30.00F HX 100
MARION           N/A     95  72  46 SW10      29.97F HX 103

....................REST OF NORTH CAROLINA......................

.........EASTERN NC.........

CITY           SKY/WX    TMP DP  RH WIND       PRES   REMARKS
CAPE HATTERAS  SUNNY     87  79  76 SW9       29.95F HX 101
JACKSONVILLE   SUNNY     98  75  47 W7        29.95F HX 110
MOREHEAD CITY  SUNNY     89  79  72 SW15      29.95F HX 104
KENANSVILLE    NOT AVBL
NEW BERN       SUNNY     95  77  55 SW7       29.95F HX 109
ELIZABETH CITY SUNNY     94  75  54 SW8       29.92F HX 105

.........CENTRAL NC.........

CITY           SKY/WX    TMP DP  RH WIND       PRES   REMARKS
RALEIGH DURHAM PTSUNNY   88  78  72 CALM      29.96F HX 101
ROCKY MOUNT    MOSUNNY   94  78  60 VRB5      29.94F HX 110
ROANOKE RAPIDS NOT AVBL
FAYETTEVILLE   MOSUNNY  100  70  37 W13       29.93F HX 107
HOFFMAN        SUNNY     99  68  36 W12G20    29.94F HX 104

.........WESTERN NC.........

CITY           SKY/WX    TMP DP  RH WIND       PRES   REMARKS
CHARLOTTE      MOSUNNY   97  65  34 VRB6      29.98F HX  99
GREENSBORO     MOSUNNY   95  68  41 VRB3      29.96F HX  99
HICKORY        NOT AVBL
BOONE          NOT AVBL
ASHEVILLE      NOT AVBL

.....................REST OF SOUTH CAROLINA.....................

.........EASTERN SC.........

CITY           SKY/WX    TMP DP  RH WIND       PRES   REMARKS
CHARLESTON     MOSUNNY   96  73  47 W7        30.00F HX 105
BEAUFORT MCAS  PTSUNNY   95  71  45 SW9G17    30.02F HX 102
HILTON HEAD    MOSUNNY  100  72  39 SW9G17    30.04F HX 109

.........CENTRAL SC.........

CITY           SKY/WX    TMP DP  RH WIND       PRES   REMARKS
COLUMBIA       PTSUNNY   99  70  38 CALM      29.96F HX 106
ORANGEBURG     MOSUNNY   95  73  48 W10G18    30.00F HX 104
SUMTER SHAW    MOSUNNY   96  72  46 SW13      29.96F HX 105

.........WESTERN SC.........

CITY           SKY/WX    TMP DP  RH WIND       PRES   REMARKS
GREENVILLE     NOT AVBL
ROCK HILL      SUNNY     99  66  33 W10       29.98F HX 103
ANDERSON       MOSUNNY   96  66  37 MISG      30.00F HX  99
CLEMSON        NOT AVBL
GREENWOOD      MOSUNNY   95  70  44 SW14G24   30.01F HX 101


...................COASTAL AND OFFSHORE REPORTS..................

................LOCAL PIERS AND NC RESERVE................


STATION/POSITION TIME  SKY/WX   TEMP    WIND        PRES    VSBY
                                AIR SEA DIR/SP/G
                 (UTC)          (F)     (DEG/KT/KT) (MB)    (MI)
JOHNY MRCER PIER 1800            95 79  270/  9/ 13 1014.0F
NC RESRV MASNBRO NOT AVBL
OCEAN CREST PIER NOT AVBL
SPRINGMAID  PIER 1800            85 84              1015.5F


................COASTAL AND OFFSHORE BUOYS................


STATION/POSITION TIME  SKY/WX   TEMP    WIND        PRES    VSBY
                                AIR SEA DIR/SP/G
                 (UTC)          (F)     (DEG/KT/KT) (MB)    (MI)
DIMNDSHOAL 41025 1850            84 85  250/ 10/ 12 1014.1F
WVE H/P(F/S)=  3/ 5 SWL H/P/D(F/S/D)=  2/220/ 5

CAPE LOOKOUT     1900            88     220/  9/ 11 1014.0F
ONSLOW BAY 41036 NOT AVBL
ONSLOW BAY 41064 1808            85 85  230/ 12/ 17 1015.1F
ONSLOW BAY 41159 1825               85                N/A
WVE H/P(F/S)=  3/ 6

5SE WRITBC 41038 NOT AVBL
MASNBO INL 41110 1806               81                N/A
WVE H/P(F/S)=  2/ 5

WILM HARBR 41108 1826               85                N/A
WVE H/P(F/S)=  3/ 6

27SE WRITB 41037 1808            85 84  230/ 14/ 17 1015.4F
FRYING PAN 41013 1800            85 85  230/ 14/ 16 1015.9F
SUNST NRSH 41024 1808            85 85  210/ 14/ 19 1014.8F
CAPRS NRSH 41029 1808            85 85  220/ 14/ 17 1016.5F
EDISTO     41004 1850            85 86  230/ 12/ 16 1016.3F
WVE H/P(F/S)=  3/ 5 SWL H/P/D(F/S/D)=  2/140/ 8



..........OFFSHORE BUOYS BEYOND 100 NM OFFSHORE...........
.....IN A TRIANGLE---HAT TO BERMUDA TO BAHAMAS TO HAT.....


STATION/POSITION TIME  SKY/WX   TEMP    WIND        PRES    VSBY
                                AIR SEA DIR/SP/G
                 (UTC)          (F)     (DEG/KT/KT) (MB)    (MI)
150E HAT   41001 NOT AVBL
W BERMUDA  41048 1850            84 85  320/  8/  8 1016.2F
WVE H/P(F/S)=  3/ 7 SWL H/P/D(F/S/D)=  2/170/ 7

ATLANTIC S 41049 1850            83 86  290/  8/ 10 1017.6F
WVE H/P(F/S)=  3/ 9 SWL H/P/D(F/S/D)=  3/100/ 9

E BAHAMAS  41046 1800            84 85  100/ 10/ 12 1018.1F
NE BAHAMAS 41047 1800            84 85  290/  4/  4 1019.0F
120E CANVRL41010 1820            85 88  240/  4/  6 1019.0F

END




USA.gov is the U.S. government's official web portal to all federal, state and local government web resources and services.